Regional Weather Roundup
Issued by NWS Cleveland, OH

Home | Current Version | Previous Version | Graphics & Text | Print | Product List | Glossary On
Versions: 1 2 3 4 5 6 7 8 9 10 11 12 13 14 15 16 17 18 19 20 21 22 23 24 25 26 27 28 29 30 31 32 33 34 35 36 37 38 39 40 41 42 43 44 45 46 47 48 49 50
000
ASUS41 KCLE 232010
RWRCLE
OHIO REGIONAL WEATHER ROUNDUP
NATIONAL WEATHER SERVICE CLEVELAND, OH
400 PM EDT SUN JUL 23 2017

NOTE: "FAIR" INDICATES FEW OR NO CLOUDS BELOW 12,000 FEET WITH NO
SIGNIFICANT WEATHER AND/OR OBSTRUCTIONS TO VISIBILITY.

OHZ001>008-015>018-024>027-034-035-043-044-232100-
   NORTHWEST OHIO

CITY           SKY/WX    TMP DP  RH WIND       PRES   REMARKS
DEFIANCE       MOSUNNY  N/A N/A N/A SW7       29.75F
FINDLAY        CLOUDY    85  71  63 W9        29.75F HX  90
TOLEDO EXPRESS MOSUNNY   84  69  60 W8        29.74F
TOLEDO EXEC    MOSUNNY   84  69  60 CALM      29.75F
LIMA           CLOUDY    80  73  79 NW6       29.78R
$$

OHZ009>014-019>023-028>033-038-089-232100-
   NORTHEAST OHIO

CITY           SKY/WX    TMP DP  RH WIND       PRES   REMARKS
CLE-HOPKINS    CLOUDY    82  69  64 NW9       29.78F
CLE-LAKEFRONT  CLOUDY    78  68  71 NW7       29.76F
CUY CO. ARPT   MOSUNNY   79  70  73 NW13      29.79F
LORAIN-ELYRIA  PTSUNNY   78  66  66 N5        29.77F
ASHTABULA      MOSUNNY   81  73  76 VRB7      29.77F
AKRON-CANTON   CLOUDY    84  67  56 W6        29.78F
WOOSTER        CLOUDY    80  70  71 CALM      29.78F
MANSFIELD      CLOUDY    80  70  71 NW6       29.77F
YOUNGSTOWN     PTSUNNY   83  68  60 SW8       29.77F
$$

OHZ042-051>053-060>062-070>072-077>081-232100-
  SOUTHWEST OHIO

CITY           SKY/WX    TMP DP  RH WIND       PRES   REMARKS
CINC-COVINGTON MOSUNNY   83  70  64 W8        29.83F
CINC-LUNKEN    MOSUNNY   84  74  71 SW6       29.81F HX  91
HAMILTON       MOSUNNY   86  76  71 SW8       29.80F HX  96
DAYTON         CLOUDY    80  73  79 W9        29.81S
WRIGHT-PAT AFB PTSUNNY   81  74  79 W9        29.80R
DAYTON GENERAL MOSUNNY   82  73  74 W8        29.80F
WILMINGTON     CLOUDY    80  75  84 SW10      29.81F
$$

OHZ036-037-039>041-045>050-054>059-063>069-073>076-082>088-232100-
  CENTRAL AND SOUTHEAST OHIO

CITY           SKY/WX    TMP DP  RH WIND       PRES   REMARKS
COLUMBUS       CLOUDY    77  70  79 S5        29.79R
OSU AIRPORT    CLOUDY    76  72  87 SW8       29.80R
BOLTON FIELD   SUNNY     79  72  78 SW8       29.81R
RICKENBACK AFB CLOUDY    77  72  83 SW5       29.80R
NEWARK         CLOUDY    79  71  76 W7        29.78R
MARION         PTSUNNY   80  71  74 N9        29.77F
LANCASTER      CLOUDY    76  71  85 SW9       29.81R
ZANESVILLE     CLOUDY    79  72  79 NE6       29.77F
NEW PHILLY     NOT AVBL
$$




USA.gov is the U.S. government's official web portal to all federal, state and local government web resources and services.